Location: ??????????
(48.4699°N, 37.9573°E)
Time: 02:50:32
(UTC+00:00)

Okean-O - Pass Details

Date: 20 January 2021
Orbit: 638 x 641 km, 98.2° (Epoch: 24 February)

Event Time Altitude Azimuth Distance (km) Brightness Sun altitude
Rises 14:53:26 0° 127° (SE) 2,940 5.7 -7.6°
Reaches altitude 10° 14:56:01 10° 113° (ESE) 2,035 4.8 -8.0°
Maximum altitude 14:59:25 22° 62° (ENE) 1,398 3.8 -8.5°
Drops below altitude 10° 15:02:51 10° 12° (NNE) 2,046 4.9 -9.0°
Sets 15:05:26 0° 357° (N) 2,960 5.9 -9.4°
